Tracking 31027 objects as of 19-Jul-2025
HD Live streaming from Space Station
objects crossing your sky now

OBJECT B

Track OBJECT B now!
10-day predictions


NORAD ID: 51947
Int'l Code: 2022-023B
Perigee: 454.9 km
Apogee: 581.2 km
Inclination: 63.5 °
Period: 94.8 minutes
Semi major axis: 6889 km
RCS: Unknown
Launch date: March 5, 2022
Source: People's Republic of China (PRC)
Launch site: Xichang Space Center, China (XSC)
Your satellite tracking list
KORSAT 7
Track 1 satellite(s)




NASA's NSSDC Master Catalog

Two Line Element Set (TLE):
1 51947U 22023B   25199.87941573  .00014702  00000-0  64720-3 0  9991
2 51947  63.4596 322.1289 0091645 344.4631  15.3671 15.18320481186256
Source of the keplerian elements: AFSPC